カタログに戻る

ONEWEB-0204

運用中通信PO
NORAD 48225·PAYLOAD·🇬🇧 United Kingdom

打ち上げ Apr 25, 2021 から Vostochny Cosmodrome

Loading…

次のパス (今後24時間)

TLE

最新Source: CelesTrak SupGP

元期: Sep 14, 2026, 16:29 UTC

1 48225C 21031R   26257.68730738 -.00002521  00000+0 -68096-2 0  2571
2 48225  87.8893 271.8558 0002118 101.7517 310.4005 13.14502547    12

AllMySatでONEWEB-0204をリアルタイム追跡

Download on the App Store